This is the latest recevied weather packets stored in our database for station/object PY2FGD-13. If no packets are shown the sender has not sent any weather packets the latest 10 day(s).
| Time | Temp. | Humidity | Pressure | Rain* | Wind** | Luminosity | Snow |
|---|---|---|---|---|---|---|---|
| 1777631261 | 21.67° C | 82% | 1019.4 hPa | - | - | - | - |
| 1777627677 | 22.22° C | 82% | 1018.7 hPa | - | - | - | - |
| 1777626461 | 22.22° C | 82% | 1018.3 hPa | - | - | - | - |
| 1777621077 | 22.22° C | 82% | 1017.5 hPa | - | - | - | - |
| 1777620461 | 22.22° C | 82% | 1017.6 hPa | - | - | - | - |
| 1777608461 | 22.22° C | 86% | 1018.3 hPa | - | - | - | - |
| 1777606661 | 22.22° C | 86% | 1018.6 hPa | - | - | - | - |
| 1777606061 | 22.78° C | 86% | 1018.8 hPa | - | - | - | - |
| 1777596460 | 22.22° C | 84% | 1018.8 hPa | - | - | - | - |
| 1777595275 | 22.22° C | 85% | 1018.5 hPa | - | - | - | - |
| 1777594676 | 22.22° C | 84% | 1018.6 hPa | - | - | - | - |
| 1777594061 | 22.22° C | 87% | 1018.4 hPa | - | - | - | - |
| 1777592860 | 22.22° C | 86% | 1018.3 hPa | - | - | - | - |
| 1777592260 | 22.78° C | 86% | 1018 hPa | - | - | - | - |
| 1777591660 | 22.78° C | 86% | 1018 hPa | - | - | - | - |
| 1777589860 | 22.78° C | 86% | 1017.6 hPa | - | - | - | - |
| 1777589260 | 22.78° C | 86% | 1017.6 hPa | - | - | - | - |
| 1777586276 | 22.22° C | 85% | 1016.7 hPa | - | - | - | - |
| 1777581460 | 22.78° C | 82% | 1015.8 hPa | - | - | - | - |
| 1777577860 | 22.78° C | 82% | 1015.2 hPa | - | - | - | - |
| 1777576689 | 22.78° C | 80% | 1014.9 hPa | - | - | - | - |
| 1777573059 | 22.22° C | 80% | 1014.8 hPa | - | - | - | - |
| 1777565864 | 22.22° C | 81% | 1015.6 hPa | - | - | - | - |
| 1777564060 | 22.22° C | 81% | 1016.1 hPa | - | - | - | - |
| 1777558659 | 21.67° C | 81% | 1017.4 hPa | - | - | - | - |
* Rain since midnight (hover to see other rain measurements)
** Current wind speed in m/s (hover to see current wind gust speed)